Location: ??????
(36.1473°N, 43.8460°E)
Time: 05:03:05
(UTC+00:00)

Daily predictions for brighter satellites

Satellite Brightness Start Highest point End
(mag) Time Altitude Azimuth Time Altitude Azimuth Time Altitude Azimuth
IRS-P3 4.1 00:01:20 10° NNE 00:06:41 83° ESE 00:10:24 20° S
Cosmos 1328 Rocket 3.8 00:02:39 10° NNW 00:06:53 50° W 00:08:41 30° SSW
Cosmos 1271 Rocket 3.0 00:03:19 10° NNW 00:06:54 43° W 00:07:42 37° SW
S3M 4.1 00:01:03 10° NNW 00:07:06 59° W 00:11:31 19° SSW
Resurs 1-4 Rocket 4.0 00:04:42 10° NNW 00:07:34 15° WNW 00:09:34 12° W
ADEOS Rocket 3.6 00:03:43 21° SSW 00:08:30 48° W 00:14:57 10° NNW
Cosmos 1743 Rocket 3.7 00:06:16 21° S 00:09:06 75° E 00:13:31 10° N
ADEOS II 3.2 00:09:13 10° N 00:13:39 28° WNW 00:15:59 20° WSW
Cosmos 1833 Rocket 2.7 00:10:32 25° SSW 00:13:50 71° WNW 00:19:29 10° NNE
NOSS 3-4 (A) 3.4 00:10:21 22° SSW 00:14:10 70° ESE 00:20:10 10° NE
NOSS 3-4 (C) 3.5 00:10:28 22° SSW 00:14:17 70° ESE 00:20:18 10° NE
H-2A R/B 3.6 00:17:46 18° SSW 00:19:23 20° S 00:28:49 10° SE
Cosmos 1980 Rocket 4.5 00:15:24 10° N 00:20:03 26° ENE 00:24:41 10° ESE
Cosmos 1151 Rocket 4.1 00:17:46 10° NW 00:21:14 25° W 00:22:13 23° WSW
Alouette 2 Rocket 4.4 00:18:08 10° NW 00:21:37 31° W 00:23:40 22° SW
IDEFIX/ARIANE 42P 3.1 00:17:59 10° N 00:22:55 44° WNW 00:26:02 21° SW
NOSS 3-2 (A) 4.2 00:15:18 10° NNW 00:23:12 88° ENE 00:31:58 10° SSE
Sich 1 4.2 00:19:10 10° SSE 00:23:17 42° E 00:27:28 10° NNE
Meteor 1-28 Rocket 4.2 00:22:56 26° WSW 00:23:43 28° W 00:27:02 10° NW
ATLAS 2AS CENTAUR R/B 3.7 00:17:33 11° S 00:24:52 50° ESE 00:32:22 10° NE
Cosmos 1782 4.5 00:22:47 10° NW 00:25:27 17° W 00:25:49 17° W
SeaSat 1 2.5 00:23:35 10° NNE 00:28:29 67° WNW 00:32:00 19° SW
CZ-4C R/B 3.5 00:30:02 22° SSW 00:31:46 39° W 00:35:01 10° NNW
Chandra Rocket (1) 3.6 00:29:24 15° WSW 00:36:13 35° S 00:39:59 10° ESE
DELTA 2 R/B (1) 3.5 00:32:30 10° WNW 00:38:03 77° SSW 00:43:36 10° ESE
BREEZE-M DEB (TANK) 3.0 00:36:17 15° WSW 00:39:54 61° NNW 00:42:43 10° NE
Cosmos 1515 Rocket 4.2 00:37:28 10° NNW 00:41:34 37° W 00:45:09 13° SSW
Meteor 1-10 Rocket 4.4 00:36:27 10° NNW 00:42:06 54° W 00:47:38 10° S
Cosmos 2082 Rocket 2.2 00:38:06 14° SSW 00:43:03 83° WNW 00:48:41 10° NNE
Cosmos 2228 Rocket 3.1 00:39:26 10° N 00:43:55 84° E 00:48:20 10° S
MSX 4.5 00:41:26 10° N 00:46:46 40° WNW 00:51:30 13° SW
CENTAUR R/B 3.3 00:44:50 10° NNW 00:53:19 85° WSW 01:02:17 10° SSE
X-37B 1.6 00:50:50 10° W 00:53:32 26° SW 00:56:13 10° SSE
FALCON 9 DEB 3.8 00:51:06 10° WNW 00:53:46 26° SW 00:56:24 10° S
GPS 2-04 Rocket1 3.5 00:51:35 10° W 00:55:08 30° SSW 00:58:32 10° SE
Meteor 1-27 Rocket 3.7 00:49:58 10° NNW 00:55:27 69° W 01:00:55 10° S
CZ-2D R/B 3.8 00:52:54 10° N 00:56:50 46° WNW 01:00:39 10° SSW
Cosmos 1633 Rocket 4.1 00:53:13 10° SSE 00:57:27 47° E 01:01:42 10° NNE
CZ-4B R/B 4.1 00:53:44 10° N 00:58:38 42° WNW 01:03:26 10° SW
Meteor 1-25 Rocket 4.4 00:53:21 10° S 00:59:11 85° E 01:05:01 10° N
Gbstr 26 Del rocket 3.8 00:55:29 12° WSW 00:59:41 55° NW 01:05:17 10° NE
CZ-2C R/B 0.9 00:56:49 12° WSW 01:00:04 63° S 01:03:23 10° E
USA 238 DEB 3.9 00:55:36 10° NW 01:02:56 71° WSW 01:10:32 10° SSE
USA 238 3.9 00:55:42 10° NW 01:03:04 72° WSW 01:10:40 10° SSE
Cosmos 1680 Rocket 4.2 00:59:15 10° S 01:04:26 57° ESE 01:09:39 10° NNE
SL-08 R/B 3.6 01:00:19 10° S 01:04:45 45° W 01:09:18 10° NNW
Cosmos 1707 Rocket 4.2 01:02:30 10° N 01:06:49 61° E 01:11:05 10° SSE
Genesis I 3.3 01:03:29 10° NW 01:07:30 62° WSW 01:11:29 10° SSE
CZ-4C R/B 4.1 01:05:44 10° WNW 01:08:37 15° NW 01:11:46 10° N
PSLV R/B 3.9 01:06:22 10° NNE 01:10:44 70° ESE 01:15:04 10° S
SL-4 R/B 1.4 01:09:41 10° NW 01:13:10 75° SW 01:16:33 10° SE
Cosmos 1818 4.1 01:08:26 10° SW 01:13:39 48° NW 01:18:57 10° NNE
Delta 2 Rocket 3.1 01:11:00 10° W 01:15:09 73° S 01:18:50 10° ESE
ARIANE 5 R/B 3.7 01:12:12 10° NNW 01:16:17 26° WNW 01:20:22 10° WSW
Cosmos 1484 Rocket 3.3 01:13:47 10° NNE 01:17:26 57° E 01:21:07 10° S
MOS 1 Rocket 4.0 01:16:46 10° SSE 01:20:56 55° ENE 01:25:11 10° N
ALOS 2.3 01:16:49 10° N 01:21:30 79° WNW 01:26:09 10° SSW
